Location: Monroe
(41.9160°N, 83.3980°W)
Time: 02:08:22
(UTC-05:00)

ISS - All Passes

Search period start: 01 February 2015 00:00
Search period end: 11 February 2015 00:00
Orbit: 400 x 408 km, 51.6° (Epoch: 01 February)

Date Brightness Start Highest point End Pass type
(mag) Time Alt. Az. Time Alt. Az. Time Alt. Az.
01 Feb - 01:13:33 10° NNW 01:15:42 16° N 01:17:51 10° NE night (unlit)
01 Feb - 02:49:44 10° NW 02:52:51 38° NNE 02:55:58 10° E night (unlit)
01 Feb - 04:26:22 10° WNW 04:29:16 28° SW 04:32:08 10° SSE night (unlit)
01 Feb - 21:05:45 10° SW 21:09:00 71° SE 21:12:17 10° ENE night (unlit)
01 Feb - 22:43:02 10° WNW 22:45:45 23° NNW 22:48:28 10° NE night (unlit)
02 Feb - 00:21:05 10° NW 00:23:05 15° N 00:25:06 10° NE night (unlit)
02 Feb - 01:57:32 10° NW 02:00:23 26° NNE 02:03:15 10° E night (unlit)
02 Feb - 03:33:48 10° WNW 03:37:02 54° SW 03:40:16 10° SE night (unlit)
02 Feb - 20:13:43 10° SSW 20:16:44 36° SE 20:19:47 10° ENE visible
02 Feb - 21:50:14 10° W 21:53:14 32° NNW 21:56:15 10° NE night (unlit)
02 Feb - 23:28:23 10° NW 23:30:27 15° N 23:32:31 10° NE night (unlit)
03 Feb - 01:05:18 10° NW 01:07:50 20° NNE 01:10:22 10° ENE night (unlit)
03 Feb - 02:41:25 10° NW 02:44:43 79° NNE 02:48:01 10° ESE night (unlit)
03 Feb - 04:19:22 10° WSW 04:20:49 12° SW 04:22:09 10° SSW night (unlit)
03 Feb - 19:22:07 10° S 19:24:30 19° SE 19:26:57 10° E visible
03 Feb - 20:57:34 10° WSW 21:00:45 51° NNW 21:03:59 10° NE visible
03 Feb - 22:35:30 10° NW 22:37:48 17° N 22:40:05 10° NNE night (unlit)
04 Feb - 00:12:59 10° NNW 00:15:12 17° N 00:17:26 10° NE night (unlit)
04 Feb - 01:49:06 10° NW 01:52:17 45° NNE 01:55:28 10° ESE night (unlit)
04 Feb - 03:25:56 10° W 03:28:37 23° SW 03:31:15 10° S night (unlit)
04 Feb - 18:32:07 10° SE 18:32:18 10° SE 18:32:37 10° SE visible
04 Feb - 20:05:04 10° SW 20:08:20 88° SSE 20:11:37 10° NE visible
04 Feb - 21:42:33 10° WNW 21:45:10 21° NNW 21:47:45 10° NE night (unlit)
04 Feb - 23:20:29 10° NW 23:22:31 15° N 23:24:33 10° NE night (unlit)
05 Feb - 00:56:49 10° NW 00:59:45 29° NNE 01:02:43 10° E night (unlit)
05 Feb - 02:33:10 10° WNW 02:36:20 43° SW 02:39:27 10° SSE night (unlit)
05 Feb - 19:12:49 10° SSW 19:15:57 45° SE 19:19:06 10° ENE visible
05 Feb - 20:49:38 10° W 20:52:33 28° NNW 20:55:27 10° NE visible
05 Feb - 22:27:47 10° NW 22:29:48 15° N 22:31:49 10° NE night (unlit)
06 Feb - 00:04:31 10° NW 00:07:08 22° NNE 00:09:47 10° ENE night (unlit)
06 Feb - 01:40:39 10° WNW 01:43:57 84° SW 01:47:14 10° SE night (unlit)
06 Feb - 18:20:58 10° S 18:23:37 24° SE 18:26:20 10° E visible
06 Feb - 19:56:49 10° WSW 19:59:58 43° NNW 20:03:06 10° NE visible
06 Feb - 21:34:52 10° NW 21:37:03 16° N 21:39:14 10° NNE night (unlit)
06 Feb - 23:12:08 10° NNW 23:14:26 17° NNE 23:16:46 10° ENE night (unlit)
07 Feb - 00:48:13 10° NW 00:51:28 53° NNE 00:54:42 10° ESE night (unlit)
07 Feb - 02:25:18 10° W 02:27:42 18° SW 02:30:02 10° S night (unlit)
07 Feb - 17:29:53 10° SSE 17:31:19 13° SE 17:32:53 10° ESE daylight
07 Feb - 19:04:10 10° WSW 19:07:25 76° NNW 19:10:42 10° NE visible
07 Feb - 20:41:50 10° WNW 20:44:19 19° NNW 20:46:47 10° NE visible
07 Feb - 22:19:37 10° NNW 22:21:41 15° N 22:23:45 10° NE night (unlit)
07 Feb - 23:55:51 10° NW 23:58:52 33° NNE 00:01:55 10° E night (unlit)
08 Feb - 01:32:19 10° WNW 01:35:21 34° SW 01:38:22 10° SSE night (unlit)
08 Feb - 18:11:45 10° SW 18:14:56 56° SE 18:18:09 10° ENE daylight
08 Feb - 19:48:48 10° W 19:51:35 25° NNW 19:54:23 10° NE visible
08 Feb - 21:26:53 10° NW 21:28:53 15° N 21:30:52 10° NE visible
08 Feb - 23:03:28 10° NW 23:06:11 23° NNE 23:08:56 10° ENE night (unlit)
09 Feb - 00:39:38 10° WNW 00:42:55 68° SW 00:46:10 10° SE night (unlit)
09 Feb - 17:19:39 10° SSW 17:22:30 29° SE 17:25:23 10° ENE daylight
09 Feb - 18:55:50 10° W 18:58:54 37° NNW 19:01:59 10° NE visible
09 Feb - 20:33:56 10° NW 20:36:03 16° N 20:38:09 10° NNE visible
09 Feb - 22:11:01 10° NNW 22:13:26 18° NNE 22:15:50 10° ENE night (unlit)
09 Feb - 23:47:06 10° NW 23:50:22 65° NNE 23:53:38 10° ESE night (unlit)
10 Feb - 01:24:30 10° W 01:26:32 15° SW 01:28:28 10° SSW night (unlit)
10 Feb - 16:28:07 10° S 16:30:06 15° SE 16:32:09 10° E daylight
10 Feb - 18:03:02 10° WSW 18:06:15 62° NNW 18:09:31 10° NE daylight
10 Feb - 19:40:50 10° WNW 19:43:13 18° NNW 19:45:35 10° NNE visible
10 Feb - 21:18:29 10° NNW 21:20:36 16° N 21:22:43 10° NE visible
10 Feb - 22:54:37 10° NW 22:57:44 38° NNE 23:00:49 10° E night (unlit)
